Location: ?????
(37.9316°N, 24.0081°E)
Time: 06:11:57
(UTC+00:00)

Daily predictions for brighter satellites

Satellite Brightness Start Highest point End
(mag) Time Altitude Azimuth Time Altitude Azimuth Time Altitude Azimuth
CZ-4C R/B 4.4 15:57:13 10° WNW 16:00:18 15° NNW 16:03:42 10° N
H-2A R/B 3.4 16:00:54 10° ESE 16:03:56 16° ENE 16:07:01 10° NNE
Cosmos 1939 Rocket 3.3 16:01:08 10° SE 16:05:02 42° ENE 16:08:54 10° N
Cosmos 773 Rocket 3.9 16:00:52 10° NNW 16:06:00 65° ENE 16:11:04 10° SSE
COSMOS 2455 2.9 16:00:32 10° SSW 16:06:34 85° ESE 16:12:37 10° NNE
CZ-2C R/B 3.8 16:02:14 10° SE 16:06:51 32° ENE 16:11:42 10° N
Feng Yun 1-1 Rocket 4.5 16:05:45 10° SE 16:10:51 44° ENE 16:16:04 10° N
Cosmos 2058 Rocket 3.6 16:08:03 10° N 16:12:16 37° ENE 16:16:26 10° SSE
Cosmos 1844 Rocket 2.9 16:08:32 10° S 16:14:00 52° ESE 16:19:29 10° NNE
Cosmos 1818 3.6 16:11:49 10° SSW 16:17:10 67° ESE 16:22:35 10° NE
Cosmos 1315 Rocket 3.4 16:14:01 10° NNW 16:17:57 62° W 16:21:56 10° S
Hubble Space Telescope 2.8 16:16:02 10° SW 16:19:03 19° S 16:22:02 10° SE
CZ-4 R/B 2.5 16:16:09 10° ESE 16:19:24 23° ENE 16:22:37 10° NNE
MOS 1 Rocket 3.4 16:16:12 10° NNE 16:20:18 44° E 16:24:24 10° S
Okean 1-7 Rocket 3.7 16:17:55 10° S 16:22:20 56° E 16:26:49 10° NNE
Cosmos 1726 Rocket 3.5 16:20:52 10° N 16:25:16 89° E 16:29:40 10° S
ATLAS 3B R/B 3.9 16:18:49 10° NW 16:25:33 49° WSW 16:32:30 10° S
CZ-4B R/B 4.0 16:21:40 10° S 16:27:05 57° W 16:32:36 10° NNW
Cosmos 1626 Rocket 4.2 16:25:09 10° SSE 16:29:02 32° E 16:32:57 10° NNE
Meteor 2-10 Rocket 3.5 16:24:53 10° N 16:30:19 64° E 16:35:29 10° SSE
X-37B 1.2 16:32:24 10° W 16:35:29 48° NNW 16:37:29 19° NE
Cosmos 44 3.9 16:31:21 10° S 16:35:35 36° ESE 16:38:59 16° NE
SAR-Lupe-4 4.0 16:32:18 10° NNE 16:35:41 39° E 16:39:02 10° S
CZ-4 R/B 4.4 16:34:17 10° SSE 16:38:19 58° ENE 16:42:24 10° N
ATLAS 5 CENTAUR R/B 4.2 16:41:08 10° NW 16:42:30 11° NW 16:43:56 10° NNW
CZ-2D R/B 3.1 16:38:55 10° SSE 16:42:45 79° ENE 16:46:37 10° N
Cosmos 1538 Rocket 3.9 16:37:45 10° NNW 16:42:57 80° ENE 16:48:06 10° SSE
COSMO-SKYMED 1 2.9 16:41:11 10° N 16:45:30 67° WNW 16:49:48 10° SSW
SAR-Lupe-1 4.1 16:42:53 10° NNE 16:46:24 54° E 16:49:53 10° S
Lacrosse 5 2.4 16:47:43 10° NNW 16:52:26 38° NE 16:54:44 25° E
Aureole 3 2.8 16:50:01 10° N 16:53:13 50° E 16:56:07 10° SSE
Okean-O 2.6 16:52:32 10° SSE 16:56:52 57° ENE 17:01:13 10° N
ISS -2.1 16:54:54 10° W 16:57:48 27° NNW 16:59:24 19° NNE
Okean O Rocket 4.1 16:54:28 10° SSW 16:58:09 25° W 17:01:51 10° NW
Meteor 2-1 Rocket 4.0 16:55:32 10° N 17:01:05 76° E 17:06:35 10° SSE
Helios 1A Rocket 3.0 17:01:01 10° SSE 17:05:00 51° ENE 17:09:02 10° N
Cosmos 1627 Rocket 4.5 17:02:51 10° S 17:08:51 58° E 17:14:58 10° NNE
Cosmos 1602 Rocket 3.4 17:05:08 10° S 17:09:25 70° E 17:12:55 15° NNE
Cosmos 1455 2.3 17:08:30 10° N 17:12:19 74° W 17:16:07 10° S
Cosmos 1340 2.5 17:09:11 10° S 17:12:51 61° E 17:13:17 56° ENE
YAOGAN 1 2.4 17:08:40 10° SSE 17:12:58 84° ENE 17:17:19 10° N
Cosmos 990 Rocket 3.9 17:09:04 10° SSW 17:14:17 80° ESE 17:18:01 19° NNE
ARGOS 3.1 17:10:20 10° SSE 17:15:33 56° ENE 17:20:47 10° N
NOSS 2-1 (C) 2.8 17:12:21 10° SSW 17:15:49 85° WNW 17:16:13 67° NNE
Cosmos 489 Rocket 4.4 17:10:15 10° NNW 17:16:39 86° ENE 17:22:58 10° SSE
Cosmos 1689 Rocket 3.3 17:17:54 25° NNW 17:19:05 39° WNW 17:21:45 10° SW
Cosmos 1703 3.4 17:16:26 10° SSW 17:20:17 72° W 17:22:57 19° N
NOSS 2-1 (D) 3.0 17:18:15 10° SW 17:21:42 70° WNW 17:21:57 66° NNW
USA 267 3.4 17:19:54 34° ENE 17:22:42 56° SE 17:29:05 10° SSW
Cosmos 1092 Rocket 4.0 17:17:00 10° S 17:23:14 85° W 17:29:25 10° N
ERS-2 3.9 17:21:33 10° N 17:24:46 30° WNW 17:27:59 10° SW
BREEZE-M DEB (TANK) 4.1 17:26:20 10° W 17:28:12 20° SW 17:28:28 20° SSW
CSL-04 Debris 4.0 17:23:10 10° SSE 17:28:32 74° ENE 17:33:55 10° N
CZ-2C R/B 2.7 17:26:40 28° NNE 17:29:37 63° ESE 17:35:10 10° S
SJ 16-02 3.2 17:26:07 10° SW 17:29:57 29° WNW 17:33:48 10° N
Cosmos 1812 Rocket 3.3 17:27:43 10° N 17:32:08 79° E 17:36:28 10° S
Cosmos 858 Rocket 4.4 17:27:04 10° S 17:32:18 69° ESE 17:33:23 53° NE
EXPRESS MD2 3.5 17:35:36 10° NW 17:41:33 77° WSW 17:41:33 77° WSW
Cosmos 158 Rocket 4.5 17:36:56 10° NNW 17:42:13 62° WSW 17:47:32 10° S
H-2A R/B 2.6 17:38:01 10° S 17:42:51 54° W 17:47:49 10° NNW
Cosmos 923 Rocket 4.3 17:39:17 10° NNW 17:44:33 65° WSW 17:49:47 10° S
Cosmos 1898 Rocket 3.9 17:40:51 10° SSW 17:46:03 61° WNW 17:48:38 29° N
Cosmos 1680 Rocket 3.5 17:46:21 10° NNW 17:51:36 76° WSW 17:53:32 39° S
CZ-4 R/B 3.7 17:50:53 10° SSW 17:54:17 25° W 17:57:40 10° NW
Cosmos 2098 Rocket 4.4 17:47:52 10° S 17:54:47 80° W 18:02:17 10° N
USA 234 4.5 17:55:48 25° NNE 17:55:48 25° NNE 18:00:23 10° NNW
Hubble Space Telescope 3.0 17:56:30 10° SW 17:58:37 19° SSW 17:58:37 19° SSW
Meteor 1-11 4.4 17:57:21 10° SSW 18:03:02 70° W 18:04:56 43° N
Cosmos 2278 Rocket 2.7 18:03:28 10° SSW 18:07:29 49° SSW 18:07:29 49° SSW
Cosmos 1553 Rocket 4.5 18:13:34 10° N 18:28:41 - S 18:18:16 51° NNW
Lacrosse 5 3.6 18:30:49 10° WNW 18:34:00 29° W 18:34:00 29° W
Cosmos 2344 4.4 18:38:57 10° NNW 18:49:03 89° ENE 18:51:01 70° SSE
NOSS 3-1 (C) 4.4 18:44:33 10° NW 18:51:58 66° WSW 18:51:58 66° WSW
USA 267 4.5 19:07:16 36° WNW 19:07:16 36° WNW 19:11:37 10° WSW
